Prairie Du Chien, WI

11:25 PM CDT on September 19, 2017 (GMT -0500)
Prairie Du Chien Municipal

Weather History for KPDC - February, 2014

Change the Weather History Date:

Sunday, February 23, 2014

  Actual Average Record
Temperature  
Mean Temperature 12 °F -  
Max Temperature 18 °F 37 °F 62 °F (1984)
Min Temperature 5 °F 19 °F -12 °F (2015)
Degree Days  
Heating Degree Days 54    
Moisture  
Dew Point 2 °F    
Average Humidity 64    
Maximum Humidity 73    
Minimum Humidity 49    
Precipitation  
Precipitation 0.00 in - - ()
Sea Level Pressure  
Sea Level Pressure 30.24 in    
Wind  
Wind Speed 10 mph (West)    
Max Wind Speed 20 mph    
Max Gust Speed 23 mph    
Visibility 10 miles    
Events      
Averages and records for this station are not official NWS values.
T = Trace of Precipitation, MM = Missing Value Source: NWS Daily Summary

Daily Weather History Graph

Daily Weather History Graph

Search for Another Location

Airport or City:

Trip Planner

Search our weather history database for the weather conditions in past years. The results will help you decide how hot, cold, wet, or windy it might be!

Date:

Astronomy

Feb. 23, 2014 Rise Set
Actual Time 6:50 AM CST 5:46 PM CST
Civil Twilight 6:21 AM CST 6:14 PM CST
Nautical Twilight 5:48 AM CST 6:47 PM CST
Astronomical Twilight 5:15 AM CST 7:20 PM CST
Moon 1:53 AM CST (2/23) 11:44 AM CST (2/23)
Length of Visible Light 11h 53m
Length of Day
10h 56m
Last Quarter, 38% of the Moon is Illuminated
Feb 23
Last Quarter
Mar 1
New
Mar 8
First Quarter
Mar 16
Full
Mar 23
Last Quarter

Hourly Weather History & Observations

Time (CST) Temp. Windchill Dew Point Humidity Pressure Visibility Wind Dir Wind Speed Gust Speed Precip Events Conditions
12:15 AM 10.2 °F -1.7 °F 3.0 °F 73% 30.15 in 10.0 mi West 8.1 mph - N/A   Clear
12:35 AM 10.2 °F -3.5 °F 3.2 °F 73% 30.15 in 10.0 mi WNW 10.4 mph - N/A   Clear
12:55 AM 10.4 °F -3.3 °F 3.0 °F 72% 30.15 in 10.0 mi WNW 10.4 mph - N/A   Clear
1:15 AM 9.5 °F -2.6 °F 2.5 °F 73% 30.16 in 10.0 mi West 8.1 mph - N/A   Clear
1:35 AM 9.1 °F -3.0 °F 2.1 °F 73% 30.16 in 10.0 mi West 8.1 mph - N/A   Clear
1:55 AM 9.5 °F -3.5 °F 2.3 °F 73% 30.15 in 10.0 mi WNW 9.2 mph - N/A   Clear
2:15 AM 9.9 °F -4.0 °F 2.3 °F 71% 30.16 in 10.0 mi WNW 10.4 mph - N/A   Clear
2:35 AM 10.0 °F -2.9 °F 2.3 °F 71% 30.17 in 10.0 mi West 9.2 mph - N/A   Clear
2:55 AM 10.2 °F -2.7 °F 2.1 °F 70% 30.17 in 10.0 mi West 9.2 mph - N/A   Clear
3:15 AM 10.0 °F -3.7 °F 1.9 °F 70% 30.17 in 10.0 mi West 10.4 mph - N/A   Clear
3:35 AM 10.2 °F -3.5 °F 1.8 °F 69% 30.18 in 10.0 mi West 10.4 mph - N/A   Clear
3:55 AM 10.0 °F -4.5 °F 1.6 °F 69% 30.19 in 10.0 mi West 11.5 mph 16.1 mph N/A   Clear
4:15 AM 9.7 °F -5.0 °F 1.4 °F 69% 30.19 in 10.0 mi West 11.5 mph - N/A   Clear
4:35 AM 9.1 °F -4.9 °F 1.0 °F 70% 30.20 in 10.0 mi West 10.4 mph - N/A   Clear
4:55 AM 8.6 °F -5.5 °F 0.5 °F 70% 30.21 in 10.0 mi West 10.4 mph - N/A   Clear
5:15 AM 7.7 °F -6.6 °F -0.0 °F 71% 30.21 in 10.0 mi West 10.4 mph - N/A   Clear
5:35 AM 7.7 °F -6.6 °F -0.2 °F 70% 30.22 in 10.0 mi West 10.4 mph - N/A   Clear
5:55 AM 6.8 °F -4.8 °F -0.8 °F 71% 30.23 in 10.0 mi West 6.9 mph - N/A   Clear
6:15 AM 6.3 °F -5.4 °F -1.3 °F 71% 30.23 in 10.0 mi West 6.9 mph - N/A   Clear
6:35 AM 6.1 °F -6.8 °F -1.5 °F 71% 30.23 in 10.0 mi West 8.1 mph - N/A   Clear
6:55 AM 5.7 °F -8.2 °F -1.7 °F 72% 30.22 in 10.0 mi WNW 9.2 mph - N/A   Clear
7:15 AM 5.0 °F -6.9 °F -2.0 °F 73% 30.23 in 10.0 mi West 6.9 mph - N/A   Clear
7:35 AM 6.6 °F -3.7 °F -1.7 °F 69% 30.23 in 10.0 mi West 5.8 mph - N/A   Clear
7:55 AM 6.8 °F -3.5 °F -1.7 °F 68% 30.24 in 10.0 mi West 5.8 mph - N/A   Clear
8:15 AM 7.7 °F -3.7 °F -1.3 °F 67% 30.25 in 10.0 mi WNW 6.9 mph - N/A   Clear
8:35 AM 8.8 °F -3.5 °F -1.3 °F 64% 30.26 in 10.0 mi West 8.1 mph - N/A   Clear
8:55 AM 10.2 °F -1.7 °F -0.2 °F 63% 30.26 in 10.0 mi West 8.1 mph - N/A   Clear
9:15 AM 11.7 °F -0.9 °F -0.2 °F 59% 30.25 in 10.0 mi WNW 9.2 mph - N/A   Clear
9:35 AM 13.1 °F -0.7 °F -0.4 °F 55% 30.25 in 10.0 mi NW 11.5 mph 17.3 mph N/A   Clear
9:55 AM 13.8 °F -0.5 °F 0.7 °F 56% 30.25 in 10.0 mi WNW 12.7 mph 16.1 mph N/A   Clear
10:15 AM 15.1 °F 1.8 °F 0.9 °F 53% 30.26 in 10.0 mi WNW 11.5 mph - N/A   Clear
10:35 AM 15.8 °F 1.4 °F 0.7 °F 51% 30.25 in 10.0 mi WNW 13.8 mph - N/A   Clear
10:55 AM 16.3 °F 1.6 °F 0.5 °F 50% 30.26 in 10.0 mi WNW 15.0 mph 21.9 mph N/A   Clear
11:15 AM 17.1 °F 5.0 °F 1.2 °F 50% 30.27 in 10.0 mi WNW 10.4 mph - N/A   Clear
11:35 AM 17.6 °F 4.3 °F 1.2 °F 49% 30.26 in 10.0 mi West 12.7 mph - N/A   Clear
11:55 AM 17.8 °F 5.9 °F 2.3 °F 51% 30.26 in 10.0 mi West 10.4 mph - N/A   Clear
12:15 PM 18.0 °F 5.4 °F 2.5 °F 51% 30.26 in 10.0 mi West 11.5 mph - N/A   Clear
12:35 PM 17.8 °F 5.9 °F 2.3 °F 51% 30.25 in 10.0 mi West 10.4 mph - N/A   Clear
12:55 PM 18.3 °F 5.9 °F 3.4 °F 52% 30.25 in 10.0 mi West 11.5 mph 17.3 mph N/A   Clear
1:15 PM 18.3 °F 5.2 °F 3.9 °F 53% 30.25 in 10.0 mi West 12.7 mph - N/A   Clear
1:35 PM 18.3 °F 5.2 °F 5.2 °F 57% 30.24 in 10.0 mi West 12.7 mph - N/A   Clear
1:55 PM 18.3 °F 3.6 °F 5.4 °F 57% 30.24 in 10.0 mi WNW 16.1 mph - N/A   Clear
2:15 PM 17.6 °F 3.7 °F 4.3 °F 56% 30.25 in 10.0 mi WSW 13.8 mph 19.6 mph N/A   Clear
2:35 PM 17.6 °F 2.7 °F 4.3 °F 56% 30.25 in 10.0 mi WSW 16.1 mph 23.0 mph N/A   Clear
2:55 PM 17.4 °F 2.4 °F 4.1 °F 56% 30.25 in 10.0 mi West 16.1 mph 21.9 mph N/A   Clear
3:15 PM 17.2 °F 3.3 °F 4.5 °F 57% 30.25 in 10.0 mi West 13.8 mph 21.9 mph N/A   Clear
3:35 PM 17.6 °F 5.0 °F 4.3 °F 56% 30.26 in 10.0 mi West 11.5 mph 20.7 mph N/A   Clear
3:55 PM 17.4 °F 1.0 °F 3.7 °F 55% 30.25 in 10.0 mi WSW 19.6 mph - N/A   Clear
4:15 PM 17.2 °F 3.9 °F 3.9 °F 56% 30.26 in 10.0 mi West 12.7 mph 18.4 mph N/A   Clear
4:35 PM 16.7 °F 1.5 °F 3.9 °F 57% 30.26 in 10.0 mi West 16.1 mph - N/A   Clear
4:55 PM 16.5 °F 3.0 °F 3.9 °F 58% 30.26 in 10.0 mi West 12.7 mph 19.6 mph N/A   Clear
5:15 PM 15.8 °F 1.4 °F 4.3 °F 60% 30.26 in 10.0 mi West 13.8 mph 19.6 mph N/A   Clear
5:35 PM 15.4 °F 1.6 °F 3.6 °F 59% 30.27 in 10.0 mi West 12.7 mph 17.3 mph N/A   Clear
5:55 PM 14.7 °F 2.1 °F 3.6 °F 61% 30.27 in 10.0 mi West 10.4 mph - N/A   Clear
6:15 PM 14.0 °F 5.1 °F 3.6 °F 63% 30.28 in 10.0 mi West 5.8 mph - N/A   Clear
6:35 PM 13.8 °F 1.8 °F 3.7 °F 64% 30.28 in 10.0 mi West 9.2 mph - N/A   Clear
6:55 PM 13.1 °F 4.0 °F 3.6 °F 66% 30.28 in 10.0 mi West 5.8 mph - N/A   Clear
7:15 PM 12.9 °F 3.8 °F 3.6 °F 66% 30.28 in 10.0 mi West 5.8 mph - N/A   Clear
7:35 PM 12.9 °F 5.2 °F 3.7 °F 67% 30.28 in 10.0 mi West 4.6 mph - N/A   Clear
7:55 PM 12.6 °F 4.8 °F 3.7 °F 68% 30.28 in 10.0 mi West 4.6 mph - N/A   Clear
8:15 PM 12.4 °F 6.3 °F 3.9 °F 69% 30.28 in 10.0 mi WNW 3.5 mph - N/A   Clear
8:35 PM 12.7 °F 5.0 °F 4.3 °F 69% 30.27 in 10.0 mi WNW 4.6 mph - N/A   Clear
8:55 PM 12.6 °F 6.5 °F 4.3 °F 69% 30.28 in 10.0 mi NW 3.5 mph - N/A   Clear
9:15 PM 12.7 °F 3.6 °F 4.3 °F 69% 30.28 in 10.0 mi West 5.8 mph - N/A   Clear
9:35 PM 12.4 °F 4.6 °F 4.5 °F 71% 30.28 in 10.0 mi WNW 4.6 mph - N/A   Clear
9:55 PM 12.7 °F 5.0 °F 4.3 °F 69% 30.28 in 10.0 mi WNW 4.6 mph - N/A   Clear
10:15 PM 12.6 °F 3.4 °F 4.6 °F 71% 30.27 in 10.0 mi NW 5.8 mph - N/A   Clear
10:35 PM 12.2 °F 4.3 °F 4.3 °F 71% 30.28 in 10.0 mi WNW 4.6 mph - N/A   Clear
10:55 PM 12.6 °F 4.8 °F 4.5 °F 70% 30.27 in 10.0 mi WNW 4.6 mph - N/A   Clear
11:15 PM 12.2 °F 1.7 °F 4.3 °F 71% 30.27 in 10.0 mi WNW 6.9 mph - N/A   Clear
11:35 PM 12.2 °F 2.9 °F 4.1 °F 70% 30.27 in 10.0 mi NW 5.8 mph - N/A   Clear
11:55 PM 13.5 °F 0.5 °F 4.6 °F 68% 30.26 in 10.0 mi WNW 10.4 mph - N/A   Clear